SHT12H EGLL-EGNT

Flight info

Callsign SHT12H
Flight time 0h 43m
Altitude 32000
Route ULTIB T420 AKUPA UY250 RIMTO
Aircraft A319/M-SDE3FGHIRWY/LB1

Departure

Time 2026-05-05 18:45
Airport London Heathrow Airport (EGLL)

Arrival

Time 2026-05-05 19:28
Airport Newcastle International Airport (EGNT)
Time Latitude Longitude Altitude Speed Heading
2026-05-05 18:14 51.47087 -0.48587 90 ft 0 kts 269°
2026-05-05 18:34 51.47087 -0.48553 86 ft 4 kts 265°
2026-05-05 18:34 51.47092 -0.48510 87 ft 4 kts 250°
2026-05-05 18:34 51.47104 -0.48477 88 ft 4 kts 203°
2026-05-05 18:35 51.47112 -0.48473 89 ft 0 kts 180°
2026-05-05 18:38 51.47109 -0.48472 89 ft 2 kts 179°
2026-05-05 18:38 51.47079 -0.48472 86 ft 7 kts 179°
2026-05-05 18:39 51.47019 -0.48471 86 ft 11 kts 180°
2026-05-05 18:39 51.46930 -0.48470 86 ft 15 kts 180°
2026-05-05 18:39 51.46844 -0.48470 86 ft 8 kts 179°
2026-05-05 18:39 51.46837 -0.48469 86 ft 0 kts 179°
2026-05-05 18:40 51.46828 -0.48469 86 ft 3 kts 179°
2026-05-05 18:40 51.46789 -0.48469 86 ft 8 kts 179°
2026-05-05 18:40 51.46724 -0.48468 86 ft 11 kts 180°
2026-05-05 18:40 51.46651 -0.48468 86 ft 8 kts 179°
2026-05-05 18:41 51.46612 -0.48468 86 ft 4 kts 180°
2026-05-05 18:41 51.46605 -0.48468 86 ft 2 kts 180°
2026-05-05 18:41 51.46592 -0.48467 86 ft 2 kts 179°
2026-05-05 18:41 51.46584 -0.48467 86 ft 1 kts 179°
2026-05-05 18:42 51.46569 -0.48467 87 ft 3 kts 179°
2026-05-05 18:42 51.46538 -0.48467 87 ft 6 kts 180°
2026-05-05 18:42 51.46497 -0.48450 88 ft 7 kts 143°
2026-05-05 18:42 51.46479 -0.48374 87 ft 8 kts 93°
2026-05-05 18:43 51.46480 -0.48278 88 ft 9 kts 90°
2026-05-05 18:43 51.46480 -0.48209 89 ft 0 kts 90°
2026-05-05 18:44 51.46479 -0.48093 87 ft 34 kts 89°
2026-05-05 18:44 51.46482 -0.47387 86 ft 92 kts 90°
2026-05-05 18:44 51.46487 -0.46071 86 ft 144 kts 90°
2026-05-05 18:44 51.46493 -0.44319 467 ft 156 kts 88°
2026-05-05 18:45 51.46552 -0.42604 1217 ft 153 kts 79°
2026-05-05 18:45 51.46868 -0.40870 1579 ft 174 kts 63°
2026-05-05 18:45 51.47618 -0.39205 1942 ft 196 kts 51°
2026-05-05 18:45 51.48526 -0.37385 2383 ft 221 kts 51°
2026-05-05 18:46 51.49537 -0.35350 2943 ft 244 kts 50°
2026-05-05 18:46 51.50618 -0.33177 3873 ft 252 kts 50°
2026-05-05 18:46 51.51723 -0.30959 4905 ft 256 kts 50°
2026-05-05 18:46 51.52654 -0.28475 5685 ft 266 kts 68°
2026-05-05 18:47 51.53330 -0.25692 6572 ft 268 kts 58°
2026-05-05 18:47 51.54581 -0.23486 7455 ft 271 kts 32°
2026-05-05 18:47 51.56333 -0.22411 8342 ft 273 kts
2026-05-05 18:47 51.58217 -0.22761 9243 ft 277 kts 341°
2026-05-05 18:48 51.60078 -0.23646 10185 ft 282 kts 345°
2026-05-05 18:48 51.62040 -0.24543 10519 ft 305 kts 339°
2026-05-05 18:48 51.64025 -0.26048 10929 ft 322 kts 331°
2026-05-05 18:48 51.65999 -0.27830 11618 ft 328 kts 329°
2026-05-05 18:49 51.67985 -0.29710 12383 ft 333 kts 329°
2026-05-05 18:49 51.69983 -0.31647 13115 ft 338 kts 328°
2026-05-05 18:49 51.72004 -0.33622 13784 ft 343 kts 328°
2026-05-05 18:49 51.74059 -0.35629 13977 ft 346 kts 328°
2026-05-05 18:50 51.76117 -0.37634 14027 ft 345 kts 328°
2026-05-05 18:50 51.78175 -0.39632 13973 ft 345 kts 328°
2026-05-05 18:50 51.80234 -0.41609 13974 ft 345 kts 331°
2026-05-05 18:50 51.82425 -0.43231 14223 ft 348 kts 335°
2026-05-05 18:51 51.84653 -0.44773 14879 ft 350 kts 336°
2026-05-05 18:51 51.86915 -0.46311 15505 ft 354 kts 335°
2026-05-05 18:51 51.89198 -0.47855 16140 ft 358 kts 336°
2026-05-05 18:51 51.91513 -0.49422 16780 ft 362 kts 336°
2026-05-05 18:52 51.93850 -0.51014 17397 ft 367 kts 336°
2026-05-05 18:52 51.96215 -0.52635 18019 ft 372 kts 336°
2026-05-05 18:52 51.98613 -0.54285 18599 ft 376 kts 336°
2026-05-05 18:52 52.01030 -0.55952 19195 ft 379 kts 335°
2026-05-05 18:53 52.03458 -0.57627 19794 ft 381 kts 335°
2026-05-05 18:53 52.05904 -0.59312 20415 ft 383 kts 335°
2026-05-05 18:53 52.08367 -0.61012 21023 ft 386 kts 335°
2026-05-05 18:53 52.10848 -0.62729 21621 ft 388 kts 335°
2026-05-05 18:54 52.13341 -0.64457 22215 ft 391 kts 335°
2026-05-05 18:54 52.15849 -0.66198 22794 ft 393 kts 334°
2026-05-05 18:54 52.18375 -0.67954 23349 ft 396 kts 334°
2026-05-05 18:54 52.20921 -0.69721 23842 ft 399 kts 334°
2026-05-05 18:55 52.23483 -0.71502 24272 ft 403 kts 334°
2026-05-05 18:55 52.26069 -0.73307 24677 ft 406 kts 334°
2026-05-05 18:55 52.28680 -0.75135 25094 ft 410 kts 334°
2026-05-05 18:55 52.31320 -0.76980 25475 ft 414 kts 334°
2026-05-05 18:56 52.33981 -0.78840 25881 ft 418 kts 334°
2026-05-05 18:56 52.36675 -0.80725 26288 ft 422 kts 334°
2026-05-05 18:56 52.39380 -0.82622 26687 ft 425 kts 334°
2026-05-05 18:56 52.42113 -0.84543 27084 ft 429 kts 334°
2026-05-05 18:57 52.44866 -0.86481 27489 ft 432 kts 333°
2026-05-05 18:57 52.47636 -0.88435 27893 ft 436 kts 333°
2026-05-05 18:57 52.50434 -0.90412 28285 ft 439 kts 333°
2026-05-05 18:57 52.53249 -0.92405 28682 ft 442 kts 333°
2026-05-05 18:58 52.56083 -0.94408 29076 ft 446 kts 333°
2026-05-05 18:58 52.58903 -0.96403 29462 ft 449 kts 333°
2026-05-05 18:58 52.61780 -0.98445 29834 ft 452 kts 333°
2026-05-05 18:58 52.64676 -1.00503 30188 ft 455 kts 333°
2026-05-05 18:59 52.67581 -1.02569 30588 ft 455 kts 334°
2026-05-05 18:59 52.70492 -1.04642 30946 ft 456 kts 334°
2026-05-05 18:59 52.73440 -1.06618 31273 ft 459 kts 339°
2026-05-05 18:59 52.76540 -1.07963 31627 ft 464 kts 347°
2026-05-05 19:00 52.79716 -1.08911 31959 ft 462 kts 347°
2026-05-05 19:00 52.82855 -1.09850 32019 ft 453 kts 348°
2026-05-05 19:00 52.85912 -1.10771 32025 ft 440 kts 347°
2026-05-05 19:00 52.88905 -1.11683 32025 ft 435 kts 347°
2026-05-05 19:01 52.94841 -1.13508 32021 ft 433 kts 347°
2026-05-05 19:01 53.00765 -1.15323 32024 ft 432 kts 347°
2026-05-05 19:02 53.06656 -1.17127 32018 ft 430 kts 347°
2026-05-05 19:02 53.12530 -1.18942 32010 ft 429 kts 347°
2026-05-05 19:03 53.18392 -1.20747 32005 ft 429 kts 348°
2026-05-05 19:03 53.24260 -1.22558 32001 ft 429 kts 347°
2026-05-05 19:04 53.30115 -1.24370 32021 ft 427 kts 347°
2026-05-05 19:04 53.35956 -1.26181 32029 ft 426 kts 348°
2026-05-05 19:05 53.41789 -1.27957 32025 ft 426 kts 351°
2026-05-05 19:05 53.47711 -1.28730 32025 ft 427 kts 354°
2026-05-05 19:06 53.53637 -1.29456 32024 ft 427 kts 353°
2026-05-05 19:06 53.59414 -1.31395 32040 ft 427 kts 338°
2026-05-05 19:07 53.64700 -1.36150 32045 ft 437 kts 328°
2026-05-05 19:07 53.67311 -1.38797 31724 ft 431 kts 327°
2026-05-05 19:07 53.69877 -1.41397 31178 ft 429 kts 327°
2026-05-05 19:08 53.72398 -1.43953 30668 ft 427 kts 327°
2026-05-05 19:08 53.74931 -1.46526 30157 ft 423 kts 327°
2026-05-05 19:08 53.77478 -1.49117 29554 ft 420 kts 327°
2026-05-05 19:08 53.79944 -1.51626 28962 ft 417 kts 327°
2026-05-05 19:09 53.82420 -1.54149 28380 ft 414 kts 327°
2026-05-05 19:09 53.84883 -1.56664 27807 ft 411 kts 327°
2026-05-05 19:09 53.87316 -1.59159 27254 ft 408 kts 326°
2026-05-05 19:09 53.89735 -1.61645 26704 ft 405 kts 326°
2026-05-05 19:10 53.92134 -1.64113 26169 ft 401 kts 326°
2026-05-05 19:10 53.94515 -1.66562 25638 ft 399 kts 326°
2026-05-05 19:10 53.96879 -1.68998 25128 ft 396 kts 326°
2026-05-05 19:10 53.99225 -1.71416 24627 ft 394 kts 326°
2026-05-05 19:11 54.01560 -1.73827 24134 ft 391 kts 326°
2026-05-05 19:11 54.03881 -1.76225 23638 ft 389 kts 325°
2026-05-05 19:11 54.06186 -1.78613 23058 ft 387 kts 326°
2026-05-05 19:11 54.08480 -1.80990 22486 ft 385 kts 326°
2026-05-05 19:12 54.10776 -1.83314 21930 ft 384 kts 329°
2026-05-05 19:12 54.13273 -1.84964 21371 ft 386 kts 342°
2026-05-05 19:12 54.15935 -1.85639 20835 ft 388 kts 355°
2026-05-05 19:12 54.18625 -1.85302 20299 ft 389 kts
2026-05-05 19:13 54.21283 -1.84460 19780 ft 386 kts
2026-05-05 19:13 54.23914 -1.83628 19276 ft 383 kts
2026-05-05 19:13 54.26522 -1.82805 18778 ft 380 kts
2026-05-05 19:13 54.29114 -1.81992 18260 ft 376 kts
2026-05-05 19:14 54.31672 -1.81192 17694 ft 372 kts
2026-05-05 19:14 54.34206 -1.80398 17129 ft 368 kts
2026-05-05 19:14 54.36715 -1.79611 16580 ft 365 kts
2026-05-05 19:14 54.39201 -1.78829 16035 ft 361 kts
2026-05-05 19:15 54.41661 -1.78055 15503 ft 358 kts
2026-05-05 19:15 54.44098 -1.77286 14979 ft 354 kts
2026-05-05 19:15 54.46508 -1.76526 14466 ft 351 kts
2026-05-05 19:15 54.48890 -1.75773 13952 ft 343 kts
2026-05-05 19:16 54.51195 -1.75037 13397 ft 331 kts
2026-05-05 19:16 54.53424 -1.74321 12834 ft 321 kts
2026-05-05 19:16 54.55585 -1.73628 12291 ft 312 kts
2026-05-05 19:16 54.57694 -1.72956 11752 ft 304 kts
2026-05-05 19:17 54.59754 -1.72300 11221 ft 298 kts
2026-05-05 19:17 54.61748 -1.71665 10704 ft 292 kts
2026-05-05 19:17 54.63759 -1.71022 10181 ft 287 kts
2026-05-05 19:17 54.65684 -1.70406 9635 ft 283 kts
2026-05-05 19:18 54.67607 -1.69830 9078 ft 277 kts
2026-05-05 19:18 54.69466 -1.70130 8657 ft 263 kts 340°
2026-05-05 19:18 54.71105 -1.71373 8296 ft 253 kts 332°
2026-05-05 19:18 54.72657 -1.72692 7928 ft 244 kts 333°
2026-05-05 19:19 54.73676 -1.73560 7691 ft 239 kts 333°
2026-05-05 19:19 54.75619 -1.75219 7237 ft 231 kts 333°
2026-05-05 19:19 54.77038 -1.76435 6878 ft 225 kts 333°
2026-05-05 19:19 54.78423 -1.77621 6529 ft 219 kts 333°
2026-05-05 19:20 54.79765 -1.78773 6167 ft 212 kts 333°
2026-05-05 19:20 54.81059 -1.79888 5788 ft 204 kts 334°
2026-05-05 19:20 54.82313 -1.80971 5421 ft 198 kts 335°
2026-05-05 19:20 54.83527 -1.82018 5107 ft 189 kts 335°
2026-05-05 19:21 54.84677 -1.83010 4775 ft 180 kts 336°
2026-05-05 19:21 54.85788 -1.83969 4517 ft 178 kts 336°
2026-05-05 19:21 54.86896 -1.84925 4249 ft 178 kts 337°
2026-05-05 19:21 54.88004 -1.85885 3988 ft 179 kts 337°
2026-05-05 19:22 54.89115 -1.86849 3724 ft 179 kts 338°
2026-05-05 19:22 54.89855 -1.87491 3558 ft 179 kts 338°
2026-05-05 19:22 54.90972 -1.88454 3285 ft 180 kts 338°
2026-05-05 19:22 54.92089 -1.89418 3018 ft 179 kts 338°
2026-05-05 19:23 54.93198 -1.90377 2762 ft 177 kts 338°
2026-05-05 19:23 54.94300 -1.91319 2496 ft 173 kts 340°
2026-05-05 19:23 54.95431 -1.91771 2264 ft 158 kts
2026-05-05 19:23 54.96472 -1.91560 2203 ft 150 kts 18°
2026-05-05 19:24 54.97417 -1.90808 2209 ft 147 kts 33°
2026-05-05 19:24 54.98163 -1.89638 2205 ft 147 kts 50°
2026-05-05 19:24 54.98686 -1.88113 2204 ft 147 kts 63°
2026-05-05 19:24 54.99115 -1.86516 2209 ft 148 kts 63°
2026-05-05 19:25 54.99551 -1.84888 2114 ft 149 kts 63°
2026-05-05 19:25 54.99984 -1.83269 1952 ft 147 kts 63°
2026-05-05 19:25 55.00413 -1.81665 1766 ft 146 kts 63°
2026-05-05 19:25 55.00813 -1.80165 1561 ft 129 kts 62°
2026-05-05 19:26 55.01181 -1.78785 1395 ft 122 kts 62°
2026-05-05 19:26 55.01538 -1.77455 1224 ft 122 kts 62°
2026-05-05 19:26 55.01891 -1.76127 1070 ft 119 kts 62°
2026-05-05 19:26 55.02243 -1.74809 866 ft 123 kts 63°
2026-05-05 19:27 55.02598 -1.73467 672 ft 123 kts 63°
2026-05-05 19:27 55.02950 -1.72135 501 ft 120 kts 62°
2026-05-05 19:27 55.03301 -1.70834 336 ft 119 kts 63°
2026-05-05 19:27 55.03627 -1.69598 268 ft 99 kts 64°
2026-05-05 19:28 55.03861 -1.68727 253 ft 55 kts 65°
2026-05-05 19:28 55.03965 -1.68403 251 ft 13 kts 44°
2026-05-05 19:28 55.04052 -1.68284 249 ft 20 kts 32°
2026-05-05 19:28 55.04150 -1.68293 244 ft 15 kts 278°
2026-05-05 19:29 55.04111 -1.68468 248 ft 16 kts 245°
2026-05-05 19:29 55.04059 -1.68660 250 ft 19 kts 245°
2026-05-05 19:29 55.04001 -1.68880 253 ft 22 kts 245°
2026-05-05 19:29 55.03933 -1.69135 254 ft 23 kts 245°
2026-05-05 19:30 55.03865 -1.69393 255 ft 18 kts 245°
2026-05-05 19:30 55.03815 -1.69608 259 ft 21 kts 251°
2026-05-05 19:30 55.03782 -1.69860 264 ft 22 kts 261°
2026-05-05 19:30 55.03774 -1.70150 263 ft 19 kts 273°
2026-05-05 19:31 55.03784 -1.70372 264 ft 17 kts 277°
2026-05-05 19:31 55.03800 -1.70532 265 ft 11 kts 274°
2026-05-05 19:31 55.03776 -1.70634 266 ft 6 kts 267°
2026-05-05 19:31 55.03754 -1.70666 266 ft 4 kts 194°
2026-05-05 19:32 55.03736 -1.70670 266 ft 0 kts 185°
2026-05-05 19:32 55.03733 -1.70670 266 ft 0 kts 184°